Lid_Strength_Index
4 3 3 3 3 2 2 1 1 1 1 1 1 1 1 1 1 0 -0 0 -0 0 0 0 0 0 0 0 0 1 1 1
4 4 3 3 2 2 2 2 1 1 1 1 1 1 1 1 0 0 0 0 0 0 0 0 0 0 0 0 0 1 1 1
4 4 3 3 3 2 2 1 1 1 1 1 1 1 0 0 1 0 0 0 0 0 0 0 0 0 0 0 0 1 1 1
4 4 3 3 3 2 2 2 1 1 1 1 1 1 1 1 1 1 0 0 0 0 0 0 0 0 7 4 1 1 1 1
4 4 3 3 2 2 2 2 1 1 1 1 1 1 1 1 1 1 1 1 0 1 1 0 1 0 8 7 5 0 1 1
4 3 3 2 2 2 1 1 1 1 1 1 1 1 1 1 1 1 1 1 1 1 1 0 0 0 8 8 6 0 1 1
3 3 2 2 2 1 1 1 1 1 2 1 1 1 1 1 1 1 1 1 1 1 1 1 1 1 9 9 3 1 1 1
3 2 2 2 2 1 2 2 2 2 1 1 1 1 1 1 1 1 1 1 1 1 1 0 3 1 10 9 3 1 1 1
2 2 3 2 2 1 2 2 2 1 1 1 1 0 1 0 1 0 1 1 1 1 1 1 0 1 3 10 7 1 1 1
3 3 3 2 2 2 2 2 1 1 1 1 1 1 1 1 1 1 1 1 1 1 1 1 1 0 5 10 9 5 4 1
2 3 3 2 2 2 2 2 1 1 1 1 1 1 1 1 1 1 1 1 1 2 2 2 2 1 0 9 10 9 7 1
2 3 3 3 2 2 1 1 1 1 1 1 1 1 1 1 1 1 1 1 1 2 2 2 2 1 1 0 1 2 8 3
2 3 3 3 2 2 1 1 1 1 1 1 1 1 1 1 1 1 1 0 2 1 1 1 2 2 1 3 2 1 0 2
3 2 2 2 2 2 1 1 1 1 2 2 2 1 1 1 1 1 11 9 9 10 8 2 1 5 10 10 9 9 10 10
3 3 2 2 2 2 1 1 1 1 2 1 1 2 1 1 2 2 2 5 9 10 9 9 8 5 10 11 12 12 12 9
2 2 2 2 2 2 1 1 1 1 1 5 1 1 1 1 1 1 1 2 2 2 8 6 10 10 11 13 12 9 5 5
2 2 2 3 3 2 2 2 1 1 1 1 1 1 1 1 1 1 1 1 2 2 1 8 9 12 13 14 13 3 2 1
3 3 2 3 3 2 2 1 1 1 1 5 3 1 1 1 1 1 1 1 1 1 2 1 2 6 3 3 5 3 1 1
2 2 2 2 2 2 2 2 1 1 2 2 4 1 1 1 1 1 1 1 1 2 1 1 7 1 1 1 1 1 1 1
2 2 2 1 1 2 2 2 1 1 1 2 3 2 2 2 1 1 1 1 1 1 1 1 11 1 1 1 1 1 1 0